Flag for Germany Weather past 2 weeks in Nienburg (Weser), Lower Saxony, Germany

Now
50 °F

Cool.


Feels Like: 45 °F
Forecast: 41 / 46 °F
Wind: 14 mph from Southwest

Location: Wunstorf Airport

Current Time: Mar 29, 2015 at 7:53:19 PM

Latest Report: Mar 29, 2015 at 7:20 PM


Visibility: 2 mi

Pressure: 29.12 "Hg

Humidity: 88%

Dew point: 46 °F

Location of Nienburg (Weser)Location

Historic Weather in Nienburg (Weser) — Graph

°F

Nienburg (Weser) temperature yesterday

Maximum temperature yesterday: 52 °F (at 1:20 PM)
Minimum temperature yesterday: 39 °F (at 6:20 AM)
Average temperature yesterday: 46 °F

Past Weeks' High & Low Weather Summary

 TemperatureHumidityPressure
High61 °F (Mar 25, 4:20 PM)100% (Mar 21, 1:20 AM)30.42 "Hg (Mar 21, 1:20 AM)
Low27 °F (Mar 23, 5:20 AM)33% (Mar 19, 5:20 PM)29.18 "Hg (Mar 29, 6:20 PM)
Average43 °F76%30.07 "Hg
* Reported Mar 14 5:20 PM — Mar 29 6:20 PM, Nienburg (Weser), Weather by CustomWeather, © 2015

Note: Actual official high and low records may vary slightly from our data, if they occured in-between our weather recording intervals... More about our weather records

Advertising

Nienburg (Weser) weather history for previous 24 hours

 ConditionsComfort  
Time TempWeatherWind HumidityBarometerVisibility
6:20 PM
Sun, Mar 29
50 °FCool.16 mph88%29.18 "Hg2 mi
5:20 PM50 °FCool.12 mph88%29.27 "Hg3 mi
4:20 PM48 °FCool.17 mph87%29.33 "Hg3 mi
3:20 PM48 °FCool.15 mph94%29.39 "Hg2 mi
2:20 PM48 °FCool.12 mph94%29.45 "Hg3 mi
1:20 PM48 °FCool.12 mph87%29.47 "Hg3 mi
12:20 PM50 °FCool.16 mph82%29.50 "Hg4 mi
11:20 AM48 °FCool.13 mph94%29.53 "Hg1 mi
10:20 AM48 °FCool.15 mph94%29.53 "Hg1 mi
9:20 AM50 °FCool.16 mph82%29.56 "Hg4 mi
8:20 AM48 °FCool.17 mph94%29.56 "Hg4 mi
7:20 AM50 °FCool.18 mph82%29.56 "Hg4 mi
6:20 AM52 °FCool.22 mph77%29.56 "Hg4 mi
5:20 AM52 °FCool.20 mph82%29.59 "Hg4 mi
4:20 AM50 °FCool.14 mph94%29.59 "Hg2 mi
3:20 AM50 °FCool.13 mph94%29.62 "Hg2 mi
1:20 AM52 °FCool.17 mph88%29.65 "Hg3 mi
12:20 AM50 °FCool.15 mph88%29.68 "Hg4 mi
11:20 PM
Sat, Mar 28
48 °FCool.13 mph94%29.71 "Hg3 mi
10:20 PM48 °FCool.15 mph87%29.74 "Hg3 mi
9:20 PM48 °FCool.13 mph87%29.77 "Hg4 mi
8:20 PM48 °FCool.15 mph82%29.83 "Hg3 mi
7:20 PM48 °FCool.13 mph76%29.83 "Hg4 mi
Weather by CustomWeather, © 2015

See weather overviewHow to use our weather pages